TimeCDT,TemperatureF,Dew PointF,Humidity,Sea Level PressureIn,VisibilityMPH,Wind Direction,Wind SpeedMPH,Gust SpeedMPH,PrecipitationIn,Events,Conditions,WindDirDegrees,DateUTC
12:52 AM,44.1,41.0,89,30.15,10.0,WSW,3.5,-,N/A,,Scattered Clouds,240,2014-05-15 05:52:00
1:52 AM,44.1,39.9,85,30.13,10.0,West,4.6,-,N/A,,Overcast,260,2014-05-15 06:52:00
2:52 AM,43.0,37.9,82,30.12,10.0,Calm,Calm,-,N/A,,Partly Cloudy,0,2014-05-15 07:52:00
3:52 AM,41.0,36.0,82,30.11,10.0,SSW,3.5,-,N/A,,Clear,210,2014-05-15 08:52:00
4:52 AM,39.9,36.0,86,30.12,10.0,Calm,Calm,-,N/A,,Mostly Cloudy,0,2014-05-15 09:52:00
5:52 AM,39.9,37.0,89,30.11,10.0,SSW,4.6,-,N/A,,Partly Cloudy,200,2014-05-15 10:52:00
6:52 AM,45.0,39.0,80,30.12,10.0,SW,6.9,-,N/A,,Overcast,220,2014-05-15 11:52:00
7:52 AM,50.0,39.0,66,30.11,10.0,SW,9.2,-,N/A,,Overcast,220,2014-05-15 12:52:00
8:52 AM,51.1,42.1,71,30.12,10.0,WSW,8.1,-,N/A,,Mostly Cloudy,250,2014-05-15 13:52:00
9:52 AM,55.4,42.8,63,30.12,10.0,West,9.2,-,N/A,,Clear,280,2014-05-15 14:52:00
10:52 AM,57.9,45.0,62,30.12,10.0,West,13.8,18.4,N/A,,Clear,270,2014-05-15 15:52:00
11:52 AM,60.1,45.0,57,30.13,10.0,WNW,12.7,-,N/A,,Partly Cloudy,300,2014-05-15 16:52:00
12:52 PM,59.0,41.0,51,30.12,10.0,WNW,12.7,23.0,N/A,,Scattered Clouds,290,2014-05-15 17:52:00
2:52 PM,61.0,33.1,35,30.11,10.0,WNW,13.8,20.7,N/A,,Clear,300,2014-05-15 19:52:00
3:52 PM,61.0,30.9,32,30.10,10.0,WNW,15.0,23.0,N/A,,Clear,300,2014-05-15 20:52:00
4:52 PM,59.0,28.0,31,30.10,10.0,NW,13.8,25.3,N/A,,Clear,310,2014-05-15 21:52:00
5:52 PM,59.0,30.0,33,30.11,10.0,NNW,18.4,24.2,N/A,,Partly Cloudy,330,2014-05-15 22:52:00
6:52 PM,57.0,28.0,33,30.10,10.0,NW,15.0,18.4,N/A,,Partly Cloudy,320,2014-05-15 23:52:00
7:52 PM,53.1,30.0,41,30.12,10.0,NW,8.1,-,N/A,,Clear,320,2014-05-16 00:52:00
8:52 PM,52.0,30.0,43,30.12,10.0,Calm,Calm,-,N/A,,Clear,0,2014-05-16 01:52:00
9:52 PM,45.0,36.0,71,30.14,10.0,Calm,Calm,-,N/A,,Clear,0,2014-05-16 02:52:00
10:52 PM,43.0,35.1,74,30.14,10.0,Calm,Calm,-,N/A,,Clear,0,2014-05-16 03:52:00
11:52 PM,41.0,35.1,79,30.13,10.0,South,3.5,-,N/A,,Clear,190,2014-05-16 04:52:00